Location: Rometta
(44.2000°N, 10.0500°E)
Time: 09:55:42
(UTC+00:00)

Cosmos 1818 - Pass Details

Date: 20 May 2021
Orbit: 771 x 802 km, 65.0° (Epoch: 15 June)

Event Time Altitude Azimuth Distance (km) Brightness Sun altitude
Rises 21:05:17 0° 317° (NW) 3,319 8.4 -19.0°
Reaches altitude 10° 21:07:57 10° 307° (NW) 2,384 7.1 -19.2°
Maximum altitude 21:12:43 31° 247° (WSW) 1,370 4.8 -19.7°
Enters shadow 21:15:15 21° 204° (SSW) 1,716 5.0 -19.9°
